Time,TemperatureF,DewpointF,PressureIn,WindDirection,WindDirectionDegrees,WindSpeedMPH,WindSpeedGustMPH,Humidity,HourlyPrecipIn,Conditions,Clouds,dailyrainin,SoftwareType,DateUTC
2013-01-30 00:02:00,70.0,64.0,29.74,South,170,11.0,11.0,81,0.00,,,0.00,,2013-01-30 06:02:00,
2013-01-30 00:11:00,70.0,64.0,29.74,South,170,11.0,11.0,81,0.00,,,0.00,,2013-01-30 06:11:00,
2013-01-30 00:21:00,70.0,64.0,29.72,SSE,160,11.0,11.0,81,0.00,,,0.00,,2013-01-30 06:21:00,
2013-01-30 00:32:00,70.0,64.0,29.72,SSE,159,9.0,9.0,81,0.00,,,0.00,,2013-01-30 06:32:00,
2013-01-30 00:42:00,70.0,64.0,29.72,SSE,159,9.0,9.0,81,0.00,,,0.00,,2013-01-30 06:42:00,
2013-01-30 00:52:00,70.0,64.0,29.73,SE,143,9.0,9.0,81,0.00,,,0.00,,2013-01-30 06:52:00,
2013-01-30 01:02:00,70.0,64.0,29.72,SSE,149,9.0,9.0,80,0.00,,,0.00,,2013-01-30 07:02:00,
2013-01-30 01:11:00,70.0,64.0,29.72,SSE,149,9.0,9.0,80,0.00,,,0.00,,2013-01-30 07:11:00,
2013-01-30 01:21:00,70.0,64.0,29.71,SSW,203,8.0,14.0,81,0.00,,,0.00,,2013-01-30 07:21:00,
2013-01-30 01:31:00,70.0,64.0,29.69,SSE,159,10.0,16.0,81,0.00,,,0.00,,2013-01-30 07:31:00,
2013-01-30 01:41:00,70.0,64.0,29.69,SSE,159,10.0,16.0,81,0.00,,,0.00,,2013-01-30 07:41:00,
2013-01-30 01:52:00,70.0,64.0,29.68,South,176,8.0,12.0,81,0.00,,,0.00,,2013-01-30 07:52:00,
2013-01-30 02:01:00,70.0,64.0,29.69,South,179,10.0,20.0,81,0.00,,,0.00,,2013-01-30 08:01:00,
2013-01-30 02:11:00,70.0,64.0,29.69,South,179,10.0,20.0,81,0.00,,,0.00,,2013-01-30 08:11:00,
2013-01-30 02:21:00,70.0,64.0,29.68,SSW,200,11.0,17.0,81,0.01,,,0.00,,2013-01-30 08:21:00,
2013-01-30 02:32:00,70.0,64.0,29.68,South,181,9.0,9.0,81,0.01,,,0.00,,2013-01-30 08:32:00,
2013-01-30 02:42:00,70.0,64.0,29.68,South,181,9.0,9.0,81,0.01,,,0.00,,2013-01-30 08:42:00,
2013-01-30 02:52:00,70.0,64.0,29.68,South,181,9.0,9.0,81,0.01,,,0.00,,2013-01-30 08:52:00,
2013-01-30 03:01:00,70.0,64.0,29.67,South,174,11.0,19.0,80,0.01,,,0.00,,2013-01-30 09:01:00,
2013-01-30 03:11:00,70.0,64.0,29.67,South,174,11.0,19.0,80,0.01,,,0.00,,2013-01-30 09:11:00,
2013-01-30 03:21:00,71.0,65.0,29.64,SSE,149,10.0,12.0,80,0.00,,,0.00,,2013-01-30 09:21:00,
2013-01-30 03:32:00,71.0,64.0,29.64,South,184,10.0,10.0,79,0.00,,,0.00,,2013-01-30 09:32:00,
2013-01-30 03:41:00,71.0,64.0,29.64,South,184,10.0,10.0,79,0.00,,,0.00,,2013-01-30 09:41:00,
2013-01-30 03:52:00,71.0,64.0,29.63,SSW,208,17.0,29.0,79,0.00,,,0.00,,2013-01-30 09:52:00,
2013-01-30 04:01:00,71.0,64.0,29.63,SSW,204,13.0,13.0,79,0.00,,,0.00,,2013-01-30 10:01:00,
2013-01-30 04:11:00,71.0,64.0,29.63,SSW,204,13.0,13.0,79,0.00,,,0.00,,2013-01-30 10:11:00,
2013-01-30 04:21:00,71.0,64.0,29.62,SSW,207,8.0,8.0,78,0.00,,,0.00,,2013-01-30 10:21:00,
2013-01-30 04:31:00,71.0,64.0,29.62,SSE,158,9.0,10.0,79,0.00,,,0.00,,2013-01-30 10:31:00,
2013-01-30 04:41:00,71.0,64.0,29.62,SSE,158,9.0,10.0,79,0.00,,,0.00,,2013-01-30 10:41:00,
2013-01-30 04:52:00,71.0,64.0,29.60,South,169,10.0,10.0,79,0.00,,,0.00,,2013-01-30 10:52:00,
2013-01-30 05:02:00,71.0,64.0,29.60,SE,124,8.0,19.0,78,0.00,,,0.00,,2013-01-30 11:02:00,
2013-01-30 05:11:00,71.0,64.0,29.60,SE,124,8.0,19.0,78,0.00,,,0.00,,2013-01-30 11:11:00,
2013-01-30 05:22:00,71.0,65.0,29.60,South,173,13.0,16.0,81,0.00,,,0.00,,2013-01-30 11:22:00,
2013-01-30 05:32:00,70.0,65.0,29.60,SSW,210,10.0,18.0,85,0.00,,,0.00,,2013-01-30 11:32:00,
2013-01-30 05:42:00,70.0,65.0,29.60,SSW,210,10.0,18.0,85,0.00,,,0.00,,2013-01-30 11:42:00,
2013-01-30 05:52:00,68.0,66.0,29.60,SSW,197,9.0,11.0,94,0.00,,,0.00,,2013-01-30 11:52:00,
2013-01-30 06:02:00,68.0,65.0,29.61,NW,305,10.0,10.0,91,0.00,,,0.00,,2013-01-30 12:02:00,
2013-01-30 06:12:00,68.0,65.0,29.61,NW,305,10.0,10.0,91,0.00,,,0.00,,2013-01-30 12:12:00,
2013-01-30 06:22:00,63.0,59.0,29.59,NW,311,17.0,17.0,87,0.00,,,0.00,,2013-01-30 12:22:00,
2013-01-30 06:32:00,57.0,55.0,29.65,NNW,330,10.0,10.0,92,0.06,,,0.00,,2013-01-30 12:32:00,
2013-01-30 06:42:00,57.0,55.0,29.65,NNW,330,10.0,10.0,92,0.06,,,0.00,,2013-01-30 12:42:00,
2013-01-30 07:03:00,56.0,55.0,29.64,North,359,2.0,0.0,96,0.06,,,0.00,,2013-01-30 13:03:00,
2013-01-30 07:12:00,56.0,55.0,29.64,North,359,2.0,0.0,96,0.06,,,0.00,,2013-01-30 13:12:00,
2013-01-30 07:23:00,56.0,55.0,29.65,NW,325,0.0,0.0,97,0.60,,,0.00,,2013-01-30 13:23:00,
2013-01-30 07:32:00,56.0,55.0,29.63,NW,325,0.0,0.0,97,0.60,,,0.00,,2013-01-30 13:32:00,
2013-01-30 07:42:00,56.0,55.0,29.63,NW,325,0.0,0.0,97,0.60,,,0.00,,2013-01-30 13:42:00,
2013-01-30 07:53:00,56.0,55.0,29.64,NNE,28,0.0,0.0,98,0.60,,,0.00,,2013-01-30 13:53:00,
2013-01-30 08:02:00,56.0,55.0,29.64,NNE,28,0.0,0.0,98,0.60,,,0.00,,2013-01-30 14:02:00,
2013-01-30 08:12:00,56.0,55.0,29.64,NNE,28,0.0,0.0,98,0.60,,,0.00,,2013-01-30 14:12:00,
2013-01-30 08:22:00,56.0,55.0,29.64,NNE,28,0.0,0.0,98,0.13,,,0.00,,2013-01-30 14:22:00,
2013-01-30 08:32:00,56.0,56.0,29.62,NNE,28,0.0,0.0,99,0.13,,,0.00,,2013-01-30 14:32:00,
2013-01-30 08:42:00,56.0,56.0,29.62,NNE,28,0.0,0.0,99,0.13,,,0.00,,2013-01-30 14:42:00,
2013-01-30 08:53:00,56.0,56.0,29.64,NNE,28,0.0,0.0,99,0.13,,,0.00,,2013-01-30 14:53:00,
2013-01-30 09:03:00,56.0,56.0,29.62,SW,235,4.0,0.0,99,0.13,,,0.00,,2013-01-30 15:03:00,
2013-01-30 09:12:00,56.0,56.0,29.62,SW,235,4.0,0.0,99,0.13,,,0.00,,2013-01-30 15:12:00,
2013-01-30 09:23:00,55.0,55.0,29.60,WNW,287,2.0,0.0,99,0.21,,,0.00,,2013-01-30 15:23:00,
2013-01-30 09:33:00,55.0,55.0,29.62,SSW,193,0.0,0.0,99,0.21,,,0.00,,2013-01-30 15:33:00,
2013-01-30 09:43:00,55.0,55.0,29.62,SSW,193,0.0,0.0,99,0.21,,,0.00,,2013-01-30 15:43:00,
2013-01-30 09:53:00,55.0,55.0,29.62,SSW,193,0.0,0.0,99,0.21,,,0.00,,2013-01-30 15:53:00,
2013-01-30 10:03:00,55.0,55.0,29.65,SSE,165,0.0,0.0,100,0.21,,,0.00,,2013-01-30 16:03:00,
2013-01-30 10:12:00,55.0,55.0,29.65,SSE,165,0.0,0.0,100,0.21,,,0.00,,2013-01-30 16:12:00,
2013-01-30 10:23:00,55.0,55.0,29.64,SSW,195,8.0,0.0,100,0.16,,,0.00,,2013-01-30 16:23:00,
2013-01-30 10:32:00,54.0,54.0,29.63,SW,229,5.0,0.0,100,0.16,,,0.00,,2013-01-30 16:32:00,
2013-01-30 10:42:00,54.0,54.0,29.63,SW,229,5.0,0.0,100,0.16,,,0.00,,2013-01-30 16:42:00,
2013-01-30 10:52:00,54.0,54.0,29.63,SW,229,5.0,0.0,100,0.16,,,0.00,,2013-01-30 16:52:00,
2013-01-30 11:02:00,54.0,54.0,29.60,SE,125,0.0,0.0,100,0.16,,,0.00,,2013-01-30 17:02:00,
2013-01-30 11:12:00,54.0,54.0,29.60,SE,125,0.0,0.0,100,0.16,,,0.00,,2013-01-30 17:12:00,
2013-01-30 11:22:00,53.0,53.0,29.62,South,183,0.0,0.0,99,0.12,,,0.00,,2013-01-30 17:22:00,
2013-01-30 11:32:00,53.0,53.0,29.61,South,183,0.0,0.0,100,0.12,,,0.00,,2013-01-30 17:32:00,
2013-01-30 11:43:00,53.0,53.0,29.61,South,183,0.0,0.0,100,0.12,,,0.00,,2013-01-30 17:43:00,
2013-01-30 11:53:00,53.0,53.0,29.62,SSE,152,6.0,0.0,100,0.12,,,0.00,,2013-01-30 17:53:00,
2013-01-30 12:02:00,53.0,53.0,29.62,SSE,158,1.0,4.0,100,0.12,,,0.00,,2013-01-30 18:02:00,
2013-01-30 12:12:00,53.0,53.0,29.62,SSE,158,1.0,4.0,100,0.12,,,0.00,,2013-01-30 18:12:00,
2013-01-30 12:22:00,53.0,53.0,29.62,SSE,158,1.0,4.0,100,0.12,,,0.00,,2013-01-30 18:22:00,
2013-01-30 12:33:00,53.0,53.0,29.59,SSE,165,3.0,0.0,100,0.11,,,0.00,,2013-01-30 18:33:00,
2013-01-30 12:43:00,53.0,53.0,29.59,SSE,165,3.0,0.0,100,0.11,,,0.00,,2013-01-30 18:43:00,
2013-01-30 12:53:00,53.0,53.0,29.60,SSE,167,2.0,0.0,100,0.11,,,0.00,,2013-01-30 18:53:00,
2013-01-30 13:02:00,53.0,53.0,29.60,SSE,153,1.0,0.0,100,0.11,,,0.00,,2013-01-30 19:02:00,
2013-01-30 13:12:00,53.0,53.0,29.60,SSE,153,1.0,0.0,100,0.11,,,0.00,,2013-01-30 19:12:00,
2013-01-30 13:22:00,54.0,54.0,29.57,SSW,193,5.0,5.0,100,0.05,,,0.00,,2013-01-30 19:22:00,
2013-01-30 13:32:00,54.0,54.0,29.57,SSW,193,5.0,5.0,100,0.05,,,0.00,,2013-01-30 19:32:00,
2013-01-30 13:43:00,54.0,54.0,29.57,SSW,193,5.0,5.0,100,0.05,,,0.00,,2013-01-30 19:43:00,
2013-01-30 13:53:00,54.0,54.0,29.58,South,184,6.0,8.0,100,0.05,,,0.00,,2013-01-30 19:53:00,
2013-01-30 14:03:00,53.0,53.0,29.58,SSE,156,6.0,6.0,100,0.05,,,0.00,,2013-01-30 20:03:00,
2013-01-30 14:12:00,53.0,53.0,29.58,SSE,156,6.0,6.0,100,0.05,,,0.00,,2013-01-30 20:12:00,
2013-01-30 14:22:00,53.0,53.0,29.60,South,187,7.0,7.0,100,0.00,,,0.00,,2013-01-30 20:22:00,
2013-01-30 14:33:00,53.0,53.0,29.58,SW,214,5.0,5.0,100,0.00,,,0.00,,2013-01-30 20:33:00,
2013-01-30 14:42:00,53.0,53.0,29.58,SW,214,5.0,5.0,100,0.00,,,0.00,,2013-01-30 20:42:00,
2013-01-30 14:53:00,53.0,53.0,29.59,SSE,162,6.0,6.0,100,0.00,,,0.00,,2013-01-30 20:53:00,
2013-01-30 15:03:00,53.0,53.0,29.58,South,190,5.0,5.0,100,0.00,,,0.00,,2013-01-30 21:03:00,
2013-01-30 15:12:00,53.0,53.0,29.58,South,190,5.0,5.0,100,0.00,,,0.00,,2013-01-30 21:12:00,
2013-01-30 15:22:00,53.0,53.0,29.57,South,177,5.0,5.0,100,0.00,,,0.00,,2013-01-30 21:22:00,
2013-01-30 15:32:00,53.0,53.0,29.56,South,190,5.0,0.0,100,0.00,,,0.00,,2013-01-30 21:32:00,
2013-01-30 15:42:00,53.0,53.0,29.56,South,190,5.0,0.0,100,0.00,,,0.00,,2013-01-30 21:42:00,
2013-01-30 15:52:00,53.0,53.0,29.57,SSW,210,5.0,6.0,100,0.00,,,0.00,,2013-01-30 21:52:00,
2013-01-30 16:02:00,53.0,53.0,29.58,SW,235,6.0,8.0,100,0.00,,,0.00,,2013-01-30 22:02:00,
2013-01-30 16:12:00,53.0,53.0,29.58,SW,235,6.0,8.0,100,0.00,,,0.00,,2013-01-30 22:12:00,
2013-01-30 16:22:00,53.0,53.0,29.58,SSW,198,8.0,8.0,99,0.00,,,0.00,,2013-01-30 22:22:00,
2013-01-30 16:32:00,53.0,52.0,29.59,South,172,4.0,0.0,98,0.00,,,0.00,,2013-01-30 22:32:00,
2013-01-30 16:42:00,53.0,52.0,29.59,South,172,4.0,0.0,98,0.00,,,0.00,,2013-01-30 22:42:00,
2013-01-30 16:53:00,53.0,52.0,29.59,SW,226,6.0,0.0,97,0.00,,,0.00,,2013-01-30 22:53:00,
2013-01-30 17:02:00,51.0,49.0,29.59,NW,312,10.0,10.0,93,0.00,,,0.00,,2013-01-30 23:02:00,
2013-01-30 17:12:00,51.0,49.0,29.59,NW,312,10.0,10.0,93,0.00,,,0.00,,2013-01-30 23:12:00,
2013-01-30 17:22:00,50.0,47.0,29.59,SSW,208,7.0,7.0,91,0.00,,,0.00,,2013-01-30 23:22:00,
2013-01-30 17:32:00,50.0,47.0,29.60,WSW,240,10.0,10.0,88,0.04,,,0.00,,2013-01-30 23:32:00,
2013-01-30 17:42:00,50.0,47.0,29.60,WSW,240,10.0,10.0,88,0.04,,,0.00,,2013-01-30 23:42:00,
2013-01-30 17:52:00,50.0,45.0,29.62,SSW,201,12.0,12.0,84,0.04,,,0.00,,2013-01-30 23:52:00,
2013-01-30 18:02:00,49.0,46.0,29.64,West,266,10.0,13.0,88,0.04,,,0.00,,2013-01-31 00:02:00,
2013-01-30 18:11:00,49.0,46.0,29.64,West,266,10.0,13.0,88,0.04,,,0.00,,2013-01-31 00:11:00,
2013-01-30 18:21:00,47.0,45.0,29.65,South,169,4.0,6.0,93,0.03,,,0.00,,2013-01-31 00:21:00,
2013-01-30 18:32:00,46.0,44.0,29.67,WNW,288,5.0,5.0,94,0.03,,,0.00,,2013-01-31 00:32:00,
2013-01-30 18:42:00,46.0,44.0,29.67,WNW,288,5.0,5.0,94,0.03,,,0.00,,2013-01-31 00:42:00,
2013-01-30 18:53:00,47.0,46.0,29.69,West,278,9.0,9.0,95,0.03,,,0.00,,2013-01-31 00:53:00,
2013-01-30 19:02:00,45.0,43.0,29.72,WNW,288,9.0,11.0,94,0.03,,,0.00,,2013-01-31 01:02:00,
2013-01-30 19:11:00,45.0,43.0,29.72,WNW,288,9.0,11.0,94,0.03,,,0.00,,2013-01-31 01:11:00,
2013-01-30 19:21:00,43.0,41.0,29.74,North,359,6.0,6.0,92,0.01,,,0.00,,2013-01-31 01:21:00,
2013-01-30 19:31:00,42.0,40.0,29.74,SW,232,9.0,9.0,92,0.01,,,0.00,,2013-01-31 01:31:00,
2013-01-30 19:41:00,42.0,40.0,29.74,SW,232,9.0,9.0,92,0.01,,,0.00,,2013-01-31 01:41:00,
2013-01-30 19:52:00,42.0,40.0,29.75,WSW,242,11.0,11.0,91,0.01,,,0.00,,2013-01-31 01:52:00,
2013-01-30 20:01:00,42.0,39.0,29.76,WNW,300,8.0,8.0,90,0.01,,,0.00,,2013-01-31 02:01:00,
2013-01-30 20:11:00,42.0,39.0,29.76,WNW,300,8.0,8.0,90,0.01,,,0.00,,2013-01-31 02:11:00,
2013-01-30 20:21:00,42.0,39.0,29.76,WSW,239,10.0,10.0,90,0.01,,,0.00,,2013-01-31 02:21:00,
2013-01-30 20:32:00,41.0,38.0,29.78,NW,319,8.0,12.0,88,0.00,,,0.00,,2013-01-31 02:32:00,
2013-01-30 20:41:00,41.0,38.0,29.78,NW,319,8.0,12.0,88,0.00,,,0.00,,2013-01-31 02:41:00,
2013-01-30 20:52:00,41.0,38.0,29.78,NW,319,8.0,12.0,88,0.00,,,0.00,,2013-01-31 02:52:00,
2013-01-30 21:03:00,42.0,37.0,29.79,NNW,343,13.0,13.0,83,0.00,,,0.00,,2013-01-31 03:03:00,
2013-01-30 21:11:00,42.0,37.0,29.79,NNW,343,13.0,13.0,83,0.00,,,0.00,,2013-01-31 03:11:00,
2013-01-30 21:21:00,41.0,34.0,29.83,WSW,256,5.0,0.0,76,0.00,,,0.00,,2013-01-31 03:21:00,
2013-01-30 21:32:00,40.0,34.0,29.84,NW,307,7.0,8.0,78,0.00,,,0.00,,2013-01-31 03:32:00,
2013-01-30 21:42:00,40.0,34.0,29.84,NW,307,7.0,8.0,78,0.00,,,0.00,,2013-01-31 03:42:00,
2013-01-30 21:52:00,40.0,33.0,29.86,West,276,11.0,11.0,75,0.00,,,0.00,,2013-01-31 03:52:00,
2013-01-30 22:02:00,39.0,32.0,29.88,West,263,10.0,11.0,76,0.00,,,0.00,,2013-01-31 04:02:00,
2013-01-30 22:11:00,39.0,32.0,29.88,West,263,10.0,11.0,76,0.00,,,0.00,,2013-01-31 04:11:00,
2013-01-30 22:22:00,39.0,32.0,29.89,NW,312,6.0,7.0,76,0.00,,,0.00,,2013-01-31 04:22:00,
2013-01-30 22:31:00,39.0,32.0,29.91,WNW,295,2.0,5.0,76,0.00,,,0.00,,2013-01-31 04:31:00,
2013-01-30 22:41:00,39.0,32.0,29.91,WNW,295,2.0,5.0,76,0.00,,,0.00,,2013-01-31 04:41:00,
2013-01-30 22:52:00,39.0,32.0,29.91,West,273,7.0,11.0,76,0.00,,,0.00,,2013-01-31 04:52:00,
2013-01-30 23:03:00,39.0,32.0,29.92,WNW,290,8.0,8.0,75,0.00,,,0.00,,2013-01-31 05:03:00,
2013-01-30 23:11:00,39.0,32.0,29.92,WNW,290,8.0,8.0,75,0.00,,,0.00,,2013-01-31 05:11:00,
2013-01-30 23:22:00,38.0,29.0,29.93,NW,307,11.0,11.0,71,0.00,,,0.00,,2013-01-31 05:22:00,
2013-01-30 23:31:00,38.0,29.0,29.93,NW,307,11.0,11.0,71,0.00,,,0.00,,2013-01-31 05:31:00,
2013-01-30 23:41:00,38.0,30.0,29.94,WNW,284,5.0,11.0,72,0.00,,,0.00,,2013-01-31 05:41:00,
2013-01-30 23:52:00,38.0,30.0,29.94,WNW,284,5.0,11.0,72,0.00,,,0.00,,2013-01-31 05:52:00,